Find Starlink 33935

NORAD ID: 63791 Int'l Des: 2025-091 Owner: SPXS Country: US Constellation: starlink operational
LEOCIRCULAR

当前视图

正在加载3D地球...

About Starlink 33935

Starlink 33935 (NORAD 63791) is a starlink constellation satellite (v2 mini) launched May 2, 2025 by SPXS of US. It operates in LEO, CIRCULAR orbit with a mass of 575.00 kg.

关于 Starlink 33935

正在加载描述...

即将过境

Passes for default location (London). Set your location on the main map for personalized predictions.

高度历史

Loading altitude history...

两行轨道根数

1 63791U 25091S 26171.11877810 .00010565 00000-0 39279-3 0 9993
2 63791 43.0027 194.3919 0001561 279.9618 80.1058 15.27587418 64678
Epoch: Jun 20, 2026 • Age: 20 hours

当前状态

高度 494.6 km
速度 7.62 km/s
星下点 -41.22°S, 172.24°W
发射日期 May 2, 2025
运行时间 1.1 years
类型 internet

技术详情

分类 Payload
质量 575.00 kg
干质量 530.00 kg
总质量 575.00 kg
长度 0.30 m
直径 4.10 m
跨度 29.00 m
形状 Box + pan
制造商 SPXS
平台类型 Starlink V2MO
阶段状态 In Orbit
所有者/国家 SPXS/US

Most Searched